Location: Mohawk View
(42.7837°N, 73.7885°W)
Time: 07:02:13
(UTC+00:00)

Cosmos 1727 Rocket - Pass Details

Date: 17 June 2021
Orbit: 960 x 997 km, 82.9° (Epoch: 27 July)

Event Time Altitude Azimuth Distance (km) Brightness Sun altitude
Exits shadow 01:39:33 - 177° (S) 3,482 6.4 -9.9°
Reaches altitude 10° 01:41:31 10° 175° (S) 2,749 5.9 -10.1°
Maximum altitude 01:47:45 68° 94° (E) 1,064 4.1 -10.9°
Drops below altitude 10° 01:54:00 10° 13° (NNE) 2,745 6.9 -11.7°
Sets 01:56:31 0° 11° (N) 3,691 7.6 -12.0°
